Location: Mannheim
(49.4880°N, 8.4650°E)
Time: 18:28:59
(UTC+02:00)

ISS - Visible Passes

Search period start: 20 July 2017 00:00
Search period end: 30 July 2017 00:00
Orbit: 400 x 408 km, 51.6° (Epoch: 20 July)

Date Brightness Start Highest point End Pass type
(mag) Time Alt. Az. Time Alt. Az. Time Alt. Az.
20 Jul -2.8 01:20:15 36° E 01:20:15 36° E 01:22:20 10° ENE visible
20 Jul -3.2 02:52:51 13° W 02:55:39 57° N 02:58:52 10° ENE visible
20 Jul -3.8 04:29:02 10° WNW 04:32:19 82° NNE 04:35:35 10° ESE visible
21 Jul -1.5 00:29:21 15° E 00:29:21 15° E 00:29:58 10° ENE visible
21 Jul -3.5 02:01:57 31° W 02:03:16 63° N 02:06:32 10° ENE visible
21 Jul -3.5 03:36:42 10° WNW 03:39:58 66° N 03:43:13 10° E visible
22 Jul -3.8 01:10:43 73° WNW 01:10:55 78° NNW 01:14:10 10° ENE visible
22 Jul -3.2 02:44:21 10° WNW 02:47:35 58° N 02:50:49 10° E visible
22 Jul -3.9 04:20:53 10° WNW 04:24:07 64° SSW 04:27:21 10° ESE visible
22 Jul -2.4 22:40:08 10° S 22:42:28 18° SE 22:44:49 10° E visible
23 Jul -4.0 00:15:19 10° WSW 00:18:33 78° SSE 00:21:50 10° ENE visible
23 Jul -3.2 01:51:57 10° W 01:55:10 56° N 01:58:24 10° ENE visible
23 Jul -3.9 03:28:31 10° WNW 03:31:48 90° W 03:35:04 10° ESE visible
23 Jul -2.6 05:05:20 10° W 05:07:59 23° SW 05:10:37 10° SSE visible
23 Jul -3.8 23:23:04 10° SW 23:26:15 53° SSE 23:29:27 10° ENE visible
24 Jul -3.3 00:59:31 10° W 01:02:45 60° N 01:05:59 10° ENE visible
24 Jul -3.6 02:36:10 10° WNW 02:39:26 70° NNE 02:42:41 10° E visible
24 Jul -3.3 04:12:45 10° W 04:15:47 35° SSW 04:18:48 10° SE visible
24 Jul -3.2 22:31:01 10° SW 22:34:00 34° SSE 22:36:59 10° E visible
25 Jul -3.7 00:07:05 10° W 00:10:20 72° NNW 00:13:35 10° ENE visible
25 Jul -3.3 01:43:46 10° WNW 01:47:01 59° N 01:50:15 10° E visible
25 Jul -3.8 03:20:18 10° WNW 03:23:31 55° SSW 03:26:43 10° SE visible
25 Jul -1.9 04:58:06 10° WSW 04:59:25 12° SW 05:00:44 10° SSW visible
25 Jul -3.9 23:14:40 10° WSW 23:17:57 87° SSE 23:21:12 10° ENE visible
26 Jul -3.2 00:51:21 10° W 00:54:34 56° N 00:56:32 21° ENE visible
26 Jul -1.9 02:27:54 10° WNW 02:29:04 20° WNW 02:29:04 20° WNW visible
26 Jul -3.9 22:22:22 10° SW 22:25:35 61° SSE 22:28:48 10° ENE visible
26 Jul -3.3 23:58:53 10° W 00:02:06 58° N 00:05:04 12° ENE visible
27 Jul -2.7 01:35:30 10° WNW 01:37:40 38° WNW 01:37:40 38° WNW visible
27 Jul -3.5 23:06:24 10° W 23:09:39 67° N 23:12:54 10° ENE visible
28 Jul -3.4 00:43:05 10° WNW 00:46:20 62° N 00:46:37 58° NE visible
28 Jul -3.8 22:13:57 10° WSW 22:17:12 85° NNW 22:20:29 10° ENE visible
28 Jul -3.2 23:50:38 10° WNW 23:53:51 56° N 23:55:42 22° ENE visible
29 Jul -1.7 01:27:10 10° WNW 01:28:19 20° WNW 01:28:19 20° WNW visible
29 Jul -3.2 22:58:07 10° W 23:01:21 57° N 23:04:34 10° ENE visible
